Welcome, Guest. Please login or register.
Did you miss your activation email?

Username: Password:
Outdoor Wood Furnace Info - Statistics Center
General Statistics
Total Members: 8226
Total Posts: 77334
Total Topics: 7278
Total Categories: 6
Users Online: 27
Most Online: 165 - May 22, 2013, 12:42:02 PM
Online Today: 74
Average registrations per day: 7.93
Average posts per day: 21.57
Average topics per day: 2.50
Total Boards: 50
Latest Member: ckhoppe
Average online per day: 25.32
Male to Female Ratio: 89.9:1
Top 10 Posters Top 10 Boards
mlappin 3925
Scott7m 3740
RSI 2948
willieG 1852
Roger2561 1670
hondaracer2oo4 1424
coolidge 1404
atvalaska 1279
MattyNH 1277
caper 1182
General Outdoor Furnace Discussion 30550
Plumbing 7518
Central Boiler 4776
General Discussion 4396
HeatMaster 4035
Portage & Main 3696
Fire Wood 3257
Home Made 2488
Equipment 2290
Electronics 2212
Top 10 Topics (by Replies) Top 10 Topics (by Views)
new heatmor and having huge issues 491
our wood stoves are horrible but epa thinks this is fine 344
Gasification wood boiler build 303
Almost 172
Wood Consumption vs. Application 144
TYPE of CHAIN SAWS USED 138
ProFab has some issues! 130
Ridgewood stoves 124
Global warming, climate change? Article 124
I'm impressed 123
Synergy Boilers? 581302
HELP! I hate my SHAVER! 468801
TAKE A STAND AGAINST MIDWEST (SYNERGY) BOILERS 449864
Synergy Boilers 98716
Gasification wood boiler build 62868
new heatmor and having huge issues 37751
Truth about Wood Doctor by president 32258
Suggested Water Temperature on Boiler 29309
My homemade/modified forced air wood furnace 28767
Used Hardy Stove info 25028
Top Topic Starters Most Time Online
coolidge 334
Roger2561 227
mlappin 109
slimjim 107
Scott7m 102
d5knapp 93
userdk 71
AirForcePOL 66
hondaracer2oo4 60
heat550 57
slimjim 90d 15h 42m
willieG 89d 16h 0m
RSI 48d 6h 3m
mlappin 37d 16h 21m
Scott7m 35d 21h 14m
koutsman 29d 22h 0m
MD20/20 26d 23h 53m
sceptre74 25d 4h 55m
CountryBoyJohn 21d 8h 26m
Roger2561 21d 2h 7m
Forum History (using forum time offset)
Yearly Summary New Topics New Posts New Members Most Online
* 2018 307 3231 7330 91
* 2017 597 7391 3268 65
December 2017 70 940 259 42
November 2017 77 940 272 40
October 2017 66 673 305 48
2017-10-01 3 19 13 25
2017-10-02 1 23 6 28
2017-10-03 3 29 9 25
2017-10-04 3 15 9 26
2017-10-05 0 3 17 20
2017-10-06 3 12 6 19
2017-10-07 1 14 5 23
2017-10-08 0 5 5 21
2017-10-09 0 25 15 25
2017-10-10 1 6 12 23
2017-10-11 3 8 12 21
2017-10-12 2 13 11 25
2017-10-13 3 32 8 20
2017-10-14 0 15 7 22
2017-10-15 4 28 2 24
2017-10-16 2 32 10 25
2017-10-17 3 53 9 22
2017-10-18 3 21 13 23
2017-10-19 0 7 22 22
2017-10-20 0 23 12 24
2017-10-21 0 6 7 22
2017-10-22 2 21 2 27
2017-10-23 3 23 10 26
2017-10-24 1 21 15 26
2017-10-25 4 19 9 26
2017-10-26 4 38 15 28
2017-10-27 3 37 11 29
2017-10-28 4 56 8 25
2017-10-29 6 34 10 48
2017-10-30 1 16 8 27
2017-10-31 3 19 7 29
September 2017 40 581 253 42
August 2017 50 619 275 31
July 2017 16 164 329 33
June 2017 28 227 264 54
2017-06-01 1 16 9 24
2017-06-02 2 7 6 19
2017-06-03 1 11 11 21
2017-06-04 0 4 10 18
2017-06-05 0 7 4 20
2017-06-06 1 3 3 19
2017-06-07 0 2 12 24
2017-06-08 0 1 17 18
2017-06-09 1 10 11 36
2017-06-10 1 6 9 54
2017-06-11 0 7 10 22
2017-06-12 1 8 8 32
2017-06-13 1 4 9 35
2017-06-14 2 7 11 20
2017-06-15 2 19 4 23
2017-06-16 1 16 6 20
2017-06-17 0 5 4 19
2017-06-18 1 3 12 21
2017-06-19 2 12 9 17
2017-06-20 2 16 7 20
2017-06-21 0 6 3 15
2017-06-22 1 6 8 22
2017-06-23 0 3 8 16
2017-06-24 0 1 4 38
2017-06-25 0 1 5 24
2017-06-26 2 7 8 18
2017-06-27 1 9 15 18
2017-06-28 2 20 13 19
2017-06-29 2 5 13 20
2017-06-30 1 5 15 16
May 2017 30 407 291 45
April 2017 40 748 290 60
March 2017 46 601 306 49
February 2017 43 569 241 65
January 2017 91 922 183 53
* 2016 546 5025 3090 75
December 2016 75 786 262 49
November 2016 55 512 251 75
October 2016 50 389 217 39
September 2016 43 244 237 27
August 2016 20 105 129 44
July 2016 14 75 126 53
June 2016 11 86 151 49
May 2016 22 164 179 39
April 2016 22 222 548 51
March 2016 43 454 576 68
2016-03-01 4 28 7 27
2016-03-02 4 29 7 31
2016-03-03 1 19 12 25
2016-03-04 1 19 6 27
2016-03-05 1 8 6 25
2016-03-06 3 32 3 29
2016-03-07 3 20 6 28
2016-03-08 0 9 3 24
2016-03-09 0 5 12 28
2016-03-10 1 7 6 40
2016-03-11 0 9 6 25
2016-03-12 0 20 3 25
2016-03-13 1 8 4 24
2016-03-14 4 27 6 30
2016-03-15 0 10 5 25
2016-03-16 1 5 4 26
2016-03-17 1 7 8 25
2016-03-18 1 14 6 22
2016-03-19 1 17 31 20
2016-03-20 2 7 26 24
2016-03-21 1 15 27 33
2016-03-22 1 16 34 30
2016-03-23 3 17 44 32
2016-03-24 1 8 29 26
2016-03-25 2 20 28 27
2016-03-26 1 17 36 25
2016-03-27 1 16 36 25
2016-03-28 1 9 46 34
2016-03-29 1 12 50 48
2016-03-30 1 11 43 68
2016-03-31 1 13 36 45
February 2016 74 806 123 58
January 2016 117 1182 291 52
* 2015 1317 11279 9513 67
December 2015 106 910 2179 40
November 2015 236 968 2620 60
October 2015 169 843 906 46
2015-10-01 1 12 15 27
2015-10-02 1 9 22 34
2015-10-03 9 33 17 37
2015-10-04 7 30 20 35
2015-10-05 1 23 21 31
2015-10-06 2 18 38 34
2015-10-07 20 48 31 32
2015-10-08 12 28 76 29
2015-10-09 3 13 57 34
2015-10-10 4 13 60 29
2015-10-11 6 16 31 29
2015-10-12 6 23 27 46
2015-10-13 3 20 28 32
2015-10-14 8 41 12 36
2015-10-15 6 24 37 33
2015-10-16 2 26 18 32
2015-10-17 9 38 7 35
2015-10-18 13 63 14 38
2015-10-19 10 51 7 36
2015-10-20 2 25 12 35
2015-10-21 7 22 22 30
2015-10-22 4 28 58 32
2015-10-23 3 40 28 40
2015-10-24 2 13 33 29
2015-10-25 8 26 24 30
2015-10-26 2 21 40 31
2015-10-27 4 33 42 36
2015-10-28 4 34 31 28
2015-10-29 2 22 32 37
2015-10-30 3 19 28 27
2015-10-31 5 31 18 29
September 2015 42 202 593 35
August 2015 49 274 447 41
July 2015 35 353 449 53
June 2015 32 269 266 42
May 2015 66 519 364 46
April 2015 92 795 418 39
March 2015 113 1670 400 46
February 2015 175 2072 445 56
January 2015 202 2404 426 67
* 2014 2461 21938 4588 110
* 2013 1171 11341 1091 165
December 2013 205 1813 294 78
November 2013 192 1828 102 74
October 2013 141 1460 116 55
September 2013 98 808 75 40
August 2013 38 293 35 45
July 2013 46 253 28 37
June 2013 26 213 86 31
May 2013 51 348 42 165
April 2013 57 539 51 88
March 2013 69 744 58 64
2013-03-01 4 39 8 31
2013-03-02 3 56 3 28
2013-03-03 1 32 1 26
2013-03-04 1 52 0 36
2013-03-05 1 15 1 24
2013-03-06 3 58 0 23
2013-03-07 4 27 2 26
2013-03-08 2 22 1 25
2013-03-09 3 32 2 30
2013-03-10 4 25 1 24
2013-03-11 0 18 1 32
2013-03-12 1 21 2 46
2013-03-13 4 18 4 21
2013-03-14 3 11 0 37
2013-03-15 4 18 2 31
2013-03-16 1 11 1 22
2013-03-17 2 20 1 36
2013-03-18 1 31 5 30
2013-03-19 3 26 1 29
2013-03-20 4 16 4 28
2013-03-21 2 32 0 64
2013-03-22 2 15 1 22
2013-03-23 2 12 3 22
2013-03-24 5 45 0 36
2013-03-25 1 16 2 22
2013-03-26 0 14 1 31
2013-03-27 2 16 2 19
2013-03-28 0 9 3 25
2013-03-29 3 15 1 21
2013-03-30 1 14 1 25
2013-03-31 2 8 4 22
February 2013 110 1403 91 51
January 2013 138 1639 113 49
* 2012 1863 11381 918 70
December 2012 111 1080 102 49
November 2012 921 2147 195 53
October 2012 121 978 101 53
September 2012 78 716 61 34
August 2012 61 404 41 29
July 2012 28 203 25 31
June 2012 19 136 16 19
May 2012 27 234 33 44
April 2012 43 355 51 35
March 2012 74 858 44 26
February 2012 146 1674 88 50
2012-02-01 3 62 6 28
2012-02-02 11 100 4 24
2012-02-03 8 89 0 23
2012-02-04 6 92 1 50
2012-02-05 6 63 2 26
2012-02-06 0 6 0 15
2012-02-07 3 43 2 40
2012-02-08 9 77 4 27
2012-02-09 8 71 3 28
2012-02-10 7 89 8 26
2012-02-11 7 70 4 24
2012-02-12 6 68 6 28
2012-02-13 5 64 1 27
2012-02-14 3 55 3 28
2012-02-15 5 60 4 24
2012-02-16 2 77 3 28
2012-02-17 5 45 1 23
2012-02-18 9 57 7 24
2012-02-19 1 43 1 22
2012-02-20 2 33 4 24
2012-02-21 4 40 2 25
2012-02-22 10 60 2 24
2012-02-23 1 29 2 20
2012-02-24 4 51 5 25
2012-02-25 4 38 2 24
2012-02-26 3 37 1 23
2012-02-27 4 30 3 20
2012-02-28 5 75 4 25
2012-02-29 5 50 3 25
January 2012 234 2596 161 70
* 2011 741 7884 698 76
December 2011 113 1639 94 66
November 2011 141 1631 98 66
2011-11-01 8 58 2 48
2011-11-02 6 87 6 49
2011-11-03 2 31 2 58
2011-11-04 1 30 3 41
2011-11-05 0 28 4 52
2011-11-06 4 46 4 41
2011-11-07 21 47 3 47
2011-11-08 7 77 5 54
2011-11-09 6 50 4 43
2011-11-10 5 103 5 48
2011-11-11 4 72 3 37
2011-11-12 1 21 1 45
2011-11-13 4 50 1 44
2011-11-14 2 55 3 66
2011-11-15 5 49 2 37
2011-11-16 5 64 9 50
2011-11-17 5 80 3 44
2011-11-18 4 46 2 36
2011-11-19 2 38 1 40
2011-11-20 2 39 0 41
2011-11-21 1 38 1 42
2011-11-22 3 34 5 43
2011-11-23 6 54 3 41
2011-11-24 4 57 2 56
2011-11-25 5 50 1 48
2011-11-26 6 78 8 58
2011-11-27 7 88 3 55
2011-11-28 6 58 4 52
2011-11-29 5 61 3 57
2011-11-30 4 42 5 51
October 2011 123 1155 91 76
September 2011 65 726 51 39
August 2011 54 368 42 32
July 2011 25 163 21 41
2011-07-01 0 0 1 19
2011-07-02 1 2 0 27
2011-07-03 0 1 1 36
2011-07-04 0 0 1 27
2011-07-05 1 7 0 27
2011-07-06 0 2 0 25
2011-07-07 0 1 0 27
2011-07-08 0 3 0 25
2011-07-09 0 0 0 23
2011-07-10 0 0 0 25
2011-07-11 0 1 0 23
2011-07-12 0 0 0 28
2011-07-13 1 6 1 23
2011-07-14 1 5 0 29
2011-07-15 1 1 1 16
2011-07-16 0 4 0 21
2011-07-17 0 4 0 41
2011-07-18 2 10 0 26
2011-07-19 0 4 0 21
2011-07-20 0 3 1 18
2011-07-21 2 2 1 22
2011-07-22 2 11 2 20
2011-07-23 3 13 3 21
2011-07-24 0 11 0 28
2011-07-25 2 13 3 27
2011-07-26 2 6 1 24
2011-07-27 4 7 3 17
2011-07-28 1 6 1 16
2011-07-29 1 33 1 19
2011-07-30 1 1 0 18
2011-07-31 0 6 0 16
June 2011 11 83 28 40
May 2011 34 276 34 37
April 2011 49 489 37 32
March 2011 30 310 47 29
February 2011 38 407 65 31
January 2011 58 637 90 32
* 2010 444 2717 284 98
* 2009 217 1823 163 20
December 2009 15 142 18 11
2009-12-01 1 2 1 8
2009-12-02 0 4 0 7
2009-12-03 1 3 1 8
2009-12-04 0 7 1 11
2009-12-05 2 5 3 5
2009-12-06 1 4 0 9
2009-12-07 0 8 1 9
2009-12-08 1 10 0 7
2009-12-09 0 8 0 11
2009-12-10 1 5 1 6
2009-12-11 0 7 1 10
2009-12-12 0 3 0 8
2009-12-13 0 0 1 6
2009-12-14 0 1 0 7
2009-12-15 1 5 1 8
2009-12-16 0 7 0 9
2009-12-17 1 13 1 9
2009-12-18 2 14 0 7
2009-12-19 0 4 0 6
2009-12-20 0 1 0 7
2009-12-21 1 2 0 7
2009-12-22 0 1 0 7
2009-12-23 0 1 0 8
2009-12-24 1 5 0 6
2009-12-25 0 1 0 6
2009-12-26 0 1 1 6
2009-12-27 0 0 0 6
2009-12-28 1 4 2 7
2009-12-29 0 5 1 9
2009-12-30 0 4 1 9
2009-12-31 1 7 1 7
November 2009 21 148 25 20
October 2009 15 104 19 11
September 2009 10 67 11 10
August 2009 6 37 9 11
July 2009 4 18 1 7
June 2009 6 28 1 8
May 2009 10 36 4 14
April 2009 12 72 7 11
March 2009 37 343 14 16
February 2009 24 324 21 16
January 2009 57 504 33 18
* 2008 119 553 148 28